Date String (YYYY-MM-DD hh:mm:ss) UTC,Instrument flags,Ambient pressure (hPa),Sample flow (lpm),Bypass flow (lpm),Sample temperature (°C),Ambient temperature (°C),ASC tube jacket temperature (°C),LED temperature (°C),Box temperature (°C),Sample RH (%),Span deviation,Mass concentration (μg/m³),Mass concentration (μg/m³),Mass concentration (μg/m³)
DateTimeUTC,F1_M11,P_M11,Q1_M11,Q2_M11,T1_M11,T2_M11,T3_M11,T4_M11,T5_M11,U1_M11,ZSPAN_M11,X0_M11,X2_M11,X1_M11
2021-11-08 06:00:00,,0825.3,5.01,0.00,29.4,28.5,00.0,38.5,31.1,06.1,0000.0,0003.75,0001.37,0000.93
2021-11-08 06:01:00,,0825.4,4.99,0.00,29.4,28.5,00.0,38.5,31.1,06.0,0000.0,0004.03,0001.38,0000.92
2021-11-08 06:02:00,,0825.3,5.01,0.00,29.4,28.5,00.0,38.5,31.1,06.1,0000.0,0004.10,0001.40,0000.93
2021-11-08 06:03:00,,0825.4,5.00,0.00,29.4,28.5,00.0,38.5,31.1,06.3,0000.0,0004.13,0001.41,0000.94
2021-11-08 06:04:00,,0825.4,4.99,0.00,29.4,28.5,00.0,38.4,31.1,06.3,0000.0,0004.18,0001.42,0000.96
2021-11-08 06:05:00,,0825.4,4.99,0.00,29.4,28.5,00.0,38.4,31.1,06.3,0000.0,0004.37,0001.49,0000.97
2021-11-08 06:06:00,,0825.4,5.00,0.00,29.4,28.5,00.0,38.4,31.1,06.3,0000.0,0004.51,0001.53,0000.96
2021-11-08 06:07:00,,0825.5,5.00,0.00,29.4,28.6,00.0,38.4,31.1,06.4,0000.0,0004.41,0001.52,0000.96
2021-11-08 06:08:00,,0825.5,5.00,0.00,29.4,28.6,00.0,38.4,31.1,06.4,0000.0,0005.44,0001.47,0000.96
2021-11-08 06:09:00,,0825.4,5.00,0.00,29.4,28.6,00.0,38.4,31.1,06.8,0000.0,0005.47,0001.42,0000.96
2021-11-08 06:10:00,,0825.5,4.99,0.00,29.4,28.6,00.0,38.4,31.1,07.0,0000.0,0004.61,0001.36,0000.96
2021-11-08 06:11:00,,0825.5,5.00,0.00,29.4,28.5,00.0,38.4,31.1,07.0,0000.0,0004.03,0001.36,0000.96
2021-11-08 06:12:00,,0825.5,4.99,0.00,29.4,28.5,00.0,38.4,31.1,06.9,0000.0,0003.99,0001.42,0000.97
2021-11-08 06:13:00,,0825.5,5.00,0.00,29.4,28.5,00.0,38.4,31.1,06.9,0000.0,0004.20,0001.49,0000.98
2021-11-08 06:14:00,,0825.5,5.00,0.00,29.4,28.5,00.0,38.4,31.1,07.0,0000.0,0004.85,0001.57,0000.98
2021-11-08 06:15:00,,0825.6,5.01,0.00,29.4,28.5,00.0,38.4,31.1,07.0,0000.0,0005.05,0001.61,0000.98
2021-11-08 06:16:00,,0825.6,5.01,0.00,29.4,28.5,00.0,38.4,31.1,07.1,0000.0,0005.17,0001.68,0000.98
2021-11-08 06:17:00,,0825.5,4.99,0.00,29.4,28.5,00.0,38.4,31.1,07.2,0000.0,0005.14,0001.66,0000.99
2021-11-08 06:18:00,,0825.5,4.98,0.00,29.4,28.5,00.0,38.4,31.1,07.3,0000.0,0005.38,0001.65,0000.99
2021-11-08 06:19:00,,0825.5,5.01,0.00,29.4,28.5,00.0,38.4,31.0,07.4,0000.0,0004.54,0001.69,0001.00
2021-11-08 06:20:00,,0825.5,5.01,0.00,29.3,28.5,00.0,38.4,31.0,07.4,0000.0,0004.39,0001.73,0001.01
2021-11-08 06:21:00,,0825.5,5.00,0.00,29.3,28.5,00.0,38.4,31.0,07.5,0000.0,0004.60,0001.78,0001.01
2021-11-08 06:22:00,,0825.5,4.99,0.00,29.3,28.5,00.0,38.4,31.0,07.6,0000.0,0004.56,0001.77,0001.02
2021-11-08 06:23:00,,0825.5,5.00,0.00,29.3,28.5,00.0,38.4,31.0,07.9,0000.0,0004.43,0001.69,0001.03
2021-11-08 06:24:00,,0825.5,4.99,0.00,29.3,28.4,00.0,38.4,31.0,08.0,0000.0,0004.36,0001.66,0001.04
2021-11-08 06:25:00,,0825.6,5.00,0.00,29.3,28.4,00.0,38.4,31.0,08.1,0000.0,0003.96,0001.67,0001.05
2021-11-08 06:26:00,,0825.5,5.00,0.00,29.3,28.4,00.0,38.4,31.0,08.2,0000.0,0003.69,0001.64,0001.06
2021-11-08 06:27:00,,0825.6,5.00,0.00,29.3,28.4,00.0,38.4,31.0,08.2,0000.0,0003.54,0001.56,0001.06
2021-11-08 06:28:00,,0825.6,5.00,0.00,29.3,28.4,00.0,38.4,31.0,08.2,0000.0,0003.68,0001.57,0001.07
2021-11-08 06:29:00,,0825.6,5.00,0.00,29.3,28.4,00.0,38.4,31.0,08.2,0000.0,0004.80,0001.63,0001.09
2021-11-08 06:30:00,,0825.6,5.00,0.00,29.3,28.4,00.0,38.4,31.0,08.2,0000.0,0004.71,0001.62,0001.09
2021-11-08 06:31:00,,0825.6,5.00,0.00,29.3,28.4,00.0,38.4,31.0,08.2,0000.0,0004.57,0001.62,0001.11
2021-11-08 06:32:00,,0825.6,5.01,0.00,29.3,28.4,00.0,38.4,31.0,08.3,0000.0,0004.40,0001.60,0001.13
2021-11-08 06:33:00,,0825.6,4.99,0.00,29.3,28.4,00.0,38.4,31.0,08.4,0000.0,0004.43,0001.63,0001.13
2021-11-08 06:34:00,,0825.6,5.01,0.00,29.3,28.4,00.0,38.4,31.0,08.4,0000.0,0004.51,0001.73,0001.15
2021-11-08 06:35:00,,0825.6,4.99,0.00,29.3,28.4,00.0,38.3,31.0,08.5,0000.0,0005.44,0001.82,0001.15
2021-11-08 06:36:00,,0825.6,5.00,0.00,29.3,28.4,00.0,38.3,31.0,08.5,0000.0,0005.91,0001.81,0001.16
2021-11-08 06:37:00,,0825.6,5.00,0.00,29.3,28.4,00.0,38.3,31.0,08.6,0000.0,0005.97,0001.84,0001.18
2021-11-08 06:38:00,,0825.6,5.00,0.00,29.3,28.4,00.0,38.3,31.0,08.7,0000.0,0006.21,0001.91,0001.20
2021-11-08 06:39:00,,0825.6,5.02,0.00,29.3,28.4,00.0,38.3,31.0,08.6,0000.0,0006.23,0001.94,0001.22
2021-11-08 06:40:00,,0825.6,5.00,0.00,29.2,28.4,00.0,38.3,31.0,08.6,0000.0,0005.65,0001.92,0001.21
2021-11-08 06:41:00,,0825.6,5.00,0.00,29.3,28.4,00.0,38.3,31.0,08.6,0000.0,0006.19,0001.94,0001.21
2021-11-08 06:42:00,,0825.6,5.00,0.00,29.3,28.4,00.0,38.3,31.0,08.5,0000.0,0006.43,0001.96,0001.22
2021-11-08 06:43:00,,0825.6,5.00,0.00,29.3,28.4,00.0,38.3,31.0,08.6,0000.0,0006.44,0001.96,0001.22
2021-11-08 06:44:00,,0825.6,4.99,0.00,29.2,28.4,00.0,38.3,31.0,08.5,0000.0,0007.24,0001.99,0001.23
2021-11-08 06:45:00,,0825.6,5.00,0.00,29.3,28.4,00.0,38.3,31.0,08.5,0000.0,0007.33,0001.98,0001.22
2021-11-08 06:46:00,,0825.6,5.01,0.00,29.3,28.4,00.0,38.3,31.0,08.5,0000.0,0006.26,0001.86,0001.22
2021-11-08 06:47:00,,0825.6,5.01,0.00,29.3,28.4,00.0,38.3,31.0,08.5,0000.0,0006.02,0001.82,0001.21
2021-11-08 06:48:00,,0825.7,4.99,0.00,29.3,28.4,00.0,38.3,31.0,08.5,0000.0,0007.13,0001.80,0001.20
2021-11-08 06:49:00,,0825.7,5.01,0.00,29.3,28.4,00.0,38.3,31.0,08.4,0000.0,0007.07,0001.77,0001.18
2021-11-08 06:50:00,,0825.7,5.00,0.00,29.3,28.4,00.0,38.3,31.0,08.5,0000.0,0007.20,0001.76,0001.18
2021-11-08 06:51:00,,0825.7,5.00,0.00,29.3,28.4,00.0,38.3,31.0,08.4,0000.0,0006.87,0001.79,0001.19
2021-11-08 06:52:00,,0825.8,4.99,0.00,29.3,28.4,00.0,38.3,31.0,08.3,0000.0,0006.91,0001.82,0001.19
2021-11-08 06:53:00,,0825.7,5.02,0.00,29.3,28.4,00.0,38.3,31.0,08.3,0000.0,0007.35,0001.86,0001.19
2021-11-08 06:54:00,,0825.7,4.99,0.00,29.3,28.4,00.0,38.3,31.0,08.3,0000.0,0008.46,0001.96,0001.19
2021-11-08 06:55:00,,0825.9,5.00,0.00,29.3,28.4,00.0,38.3,31.0,08.4,0000.0,0008.45,0001.93,0001.18
2021-11-08 06:56:00,,0826.0,5.00,0.00,29.3,28.4,00.0,38.3,31.0,08.4,0000.0,0008.95,0001.95,0001.18
2021-11-08 06:57:00,,0825.8,5.00,0.00,29.3,28.4,00.0,38.3,31.0,08.5,0000.0,0009.32,0002.04,0001.19
2021-11-08 06:58:00,,0826.0,4.99,0.00,29.3,28.4,00.0,38.3,31.1,08.5,0000.0,0009.87,0002.12,0001.20
2021-11-08 06:59:00,,0826.0,5.00,0.00,29.3,28.4,00.0,38.3,31.1,08.4,0000.0,0009.62,0002.22,0001.21
